sat.trackr.live / text

‹ back to catalog

STARLINK-35406

NORAD 65795 · 2025-218E

PAYLOAD ACTIVE UNKNOWN

§ Identity

Operator
Country
US
Launch date
2025-09-26
Launch site
AFWTR
Launch vehicle
Mass (kg)
RCS (m²)

Purposes: comms

External: N2YO · Heavens-Above · Gunter

§ Orbital elements

Epoch: 2026-09-20T12:51:05.315616Z

Period
93.91 min
Inclination
97.2851°
Eccentricity
0.0001096
Mean motion
15.33450736 rev/d
Perigee alt
464.8 km
Apogee alt
466.3 km
Semi-major
6,843.7 km
B*
4.0012e-4
RAAN
120.9760°
Arg perigee
96.9960°
Mean anomaly
263.1407°
Rev number
5,434

§ Raw data

STARLINK-354061 65795U 25218E   26263.53547819  .00012867  00000+0  40012-3 0  99942 65795  97.2851 120.9760 0001096  96.9960 263.1407 15.33450736 54342

JSON: /api/v1/satellites/65795 · /tle

For live sub-satellite position, see the globe view (requires WebGL).

§ Visibility from observer

Set your observer location to see the next 7 days of passes ≥ 10°. The values pass through the URL so the page stays shareable.

No JS? Fill the form by hand. The geolocation button needs JavaScript.